QPF
0.01 0.01 0.01 0.01 0.02 0.02 0.03 0.04 0.06 0.06 0.05 0.05 0.06 0.09 0.12 0.14 0.17 0.19 0.18 0.22 0.25 0.27 0.28 0.29 0.28 0.23 0.19 0.16 0.15 0.14 0.12 0.10 0.08 0.07 0.05 0.03 0.02 0.02
0.00 0.00 0.01 0.01 0.01 0.01 0.02 0.03 0.05 0.07 0.07 0.07 0.07 0.09 0.13 0.17 0.21 0.21 0.20 0.23 0.25 0.25 0.25 0.26 0.24 0.20 0.16 0.13 0.12 0.10 0.09 0.08 0.07 0.06 0.05 0.04 0.03 0.03
0.00 0.00 0.00 0.00 0.00 0.00 0.01 0.01 0.03 0.06 0.08 0.09 0.10 0.11 0.13 0.16 0.18 0.17 0.18 0.20 0.20 0.22 0.23 0.22 0.18 0.14 0.12 0.10 0.08 0.07 0.06 0.05 0.05 0.04 0.04 0.03 0.03 0.03
0.00 0.00 0.00 0.00 0.00 0.00 0.00 0.01 0.03 0.05 0.07 0.09 0.10 0.10 0.11 0.11 0.12 0.12 0.13 0.12 0.13 0.16 0.17 0.16 0.13 0.11 0.09 0.07 0.06 0.05 0.04 0.03 0.03 0.02 0.02 0.01 0.01 0.01
0.00 0.00 0.00 0.00 0.00 0.00 0.01 0.01 0.03 0.04 0.05 0.06 0.07 0.07 0.07 0.07 0.08 0.08 0.08 0.08 0.08 0.09 0.10 0.10 0.09 0.07 0.06 0.04 0.04 0.03 0.02 0.02 0.01 0.01 0.01 0.01 0.01 0.01
0.00 0.00 0.00 0.00 0.00 0.00 0.01 0.01 0.01 0.02 0.03 0.03 0.03 0.03 0.03 0.04 0.05 0.05 0.04 0.04 0.04 0.04 0.05 0.04 0.04 0.03 0.03 0.03 0.02 0.01 0.01 0.01 0.00 0.00 0.00 0.00 0.00 0.00
0.00 0.00 0.00 0.00 0.00 0.00 0.00 0.00 0.01 0.01 0.01 0.01 0.01 0.02 0.02 0.03 0.03 0.03 0.03 0.03 0.02 0.02 0.01 0.01 0.01 0.01 0.01 0.01 0.01 0.00 0.00 0.00 0.00 0.00 0.00 0.00 0.00 0.00
0.00 0.00 0.00 0.00 0.00 0.00 0.00 0.00 0.00 0.00 0.01 0.01 0.01 0.01 0.01 0.01 0.02 0.01 0.01 0.01 0.01 0.00 0.00 0.00 0.00 0.00 0.00 0.00 0.00 0.00 0.00 0.00 0.00 0.00 0.00 0.00 0.00 0.00
0.00 0.00 0.00 0.00 0.00 0.00 0.00 0.00 0.00 0.00 0.00 0.00 0.00 0.00 0.00 0.00 0.00 0.00 0.00 0.00 0.00 0.00 0.00 0.00 0.00 0.00 0.00 0.00 0.00 0.00 0.00 0.00 0.00 0.00 0.00 0.00 0.00 0.00
0.00 0.00 0.00 0.00 0.00 0.00 0.00 0.00 0.00 0.00 0.00 0.00 0.00 0.00 0.00 0.00 0.00 0.00 0.00 0.00 0.00 0.00 0.00 0.00 0.00 0.00 0.00 0.00 0.00 0.00 0.00 0.00 0.00 0.00 0.00 0.00 0.00 0.00
0.00 0.00 0.00 0.00 0.00 0.00 0.00 0.00 0.00 0.00 0.00 0.00 0.00 0.00 0.00 0.00 0.00 0.00 0.00 0.00 0.00 0.00 0.00 0.00 0.00 0.00 0.00 0.00 0.00 0.00 0.00 0.00 0.00 0.00 0.00 0.00 0.00 0.00
0.00 0.00 0.00 0.00 0.00 0.00 0.00 0.00 0.00 0.00 0.00 0.00 0.00 0.00 0.00 0.00 0.00 0.00 0.00 0.00 0.00 0.00 0.00 0.00 0.00 0.00 0.00 0.00 0.00 0.00 0.00 0.00 0.00 0.00 0.00 0.00 0.00 0.00
0.00 0.00 0.00 0.00 0.00 0.00 0.00 0.00 0.00 0.00 0.00 0.00 0.00 0.00 0.00 0.00 0.00 0.00 0.00 0.00 0.00 0.00 0.00 0.00 0.00 0.00 0.00 0.00 0.00 0.00 0.00 0.00 0.00 0.00 0.00 0.00 0.00 0.00
0.00 0.00 0.00 0.00 0.00 0.00 0.00 0.00 0.00 0.00 0.00 0.00 0.00 0.00 0.00 0.00 0.00 0.00 0.00 0.00 0.00 0.00 0.00 0.00 0.00 0.00 0.01 0.01 0.00 0.00 0.00 0.00 0.00 0.00 0.00 0.00 0.00 0.00
0.00 0.00 0.00 0.00 0.00 0.00 0.00 0.00 0.00 0.00 0.00 0.00 0.00 0.00 0.00 0.00 0.00 0.00 0.00 0.00 0.00 0.00 0.00 0.00 0.00 0.00 0.01 0.01 0.01 0.00 0.00 0.00 0.00 0.00 0.00 0.00 0.00 0.00
0.00 0.00 0.00 0.00 0.00 0.00 0.00 0.00 0.00 0.00 0.00 0.00 0.00 0.00 0.00 0.00 0.00 0.00 0.00 0.00 0.00 0.00 0.00 0.00 0.00 0.01 0.01 0.01 0.01 0.01 0.00 0.00 0.00 0.00 0.00 0.00 0.00 0.00
0.00 0.00 0.00 0.00 0.00 0.00 0.00 0.00 0.00 0.00 0.00 0.00 0.00 0.00 0.00 0.00 0.00 0.00 0.00 0.00 0.00 0.00 0.00 0.00 0.00 0.00 0.00 0.01 0.01 0.00 0.00 0.00 0.00 0.00 0.00 0.00 0.00 0.00
0.00 0.00 0.00 0.00 0.00 0.00 0.00 0.00 0.00 0.00 0.00 0.00 0.00 0.00 0.00 0.00 0.00 0.00 0.00 0.00 0.00 0.00 0.00 0.00 0.00 0.00 0.00 0.00 0.00 0.00 0.00 0.00 0.00 0.00 0.00 0.00 0.00 0.00
0.00 0.00 0.00 0.00 0.00 0.00 0.00 0.00 0.00 0.00 0.00 0.00 0.00 0.00 0.00 0.00 0.00 0.00 0.00 0.00 0.00 0.00 0.00 0.00 0.00 0.01 0.01 0.00 0.00 0.00 0.00 0.00 0.00 0.00 0.00 0.00 0.00 0.00
0.00 0.00 0.00 0.00 0.00 0.00 0.00 0.00 0.00 0.00 0.00 0.00 0.00 0.00 0.00 0.00 0.00 0.00 0.00 0.00 0.00 0.00 0.00 0.00 0.00 0.01 0.01 0.01 0.01 0.00 0.00 0.00 0.00 0.00 0.00 0.00 0.00 0.00
0.00 0.00 0.00 0.00 0.00 0.00 0.00 0.00 0.00 0.00 0.00 0.00 0.00 0.00 0.00 0.00 0.00 0.00 0.00 0.00 0.00 0.01 0.00 0.00 0.00 0.00 0.02 0.04 0.02 0.00 0.00 0.00 0.00 0.00 0.00 0.01 0.01 0.00
0.00 0.00 0.00 0.00 0.00 0.00 0.00 0.00 0.00 0.00 0.00 0.00 0.00 0.00 0.00 0.00 0.00 0.00 0.00 0.00 0.00 0.00 0.00 0.00 0.00 0.00 0.02 0.03 0.01 0.00 0.00 0.00 0.00 0.00 0.00 0.01 0.02 0.01
0.00 0.00 0.00 0.00 0.00 0.00 0.00 0.00 0.00 0.00 0.00 0.00 0.00 0.00 0.00 0.00 0.00 0.01 0.01 0.01 0.01 0.01 0.00 0.00 0.00 0.00 0.01 0.01 0.01 0.01 0.00 0.00 0.00 0.00 0.00 0.00 0.00 0.00
MSLP
1017.89 1018.09 1018.29 1018.44 1018.55 1018.61 1018.62 1018.60 1018.58 1018.56 1018.55 1018.57 1018.60 1018.64 1018.66 1018.68 1018.67 1018.66 1018.66 1018.70 1018.79 1018.96 1019.21 1019.54 1019.92 1020.35 1020.78 1021.21 1021.61 1021.96 1022.26 1022.53 1022.75 1022.93 1023.09 1023.21 1023.30 1023.34
1018.53 1018.69 1018.83 1018.92 1018.97 1018.97 1018.93 1018.86 1018.80 1018.76 1018.74 1018.75 1018.76 1018.79 1018.79 1018.78 1018.74 1018.69 1018.65 1018.65 1018.70 1018.83 1019.05 1019.35 1019.72 1020.14 1020.58 1021.01 1021.41 1021.77 1022.08 1022.34 1022.56 1022.74 1022.88 1022.99 1023.06 1023.08
1019.31 1019.43 1019.52 1019.57 1019.56 1019.50 1019.42 1019.32 1019.23 1019.16 1019.13 1019.12 1019.13 1019.13 1019.12 1019.08 1019.02 1018.93 1018.85 1018.81 1018.82 1018.90 1019.08 1019.34 1019.68 1020.06 1020.48 1020.88 1021.26 1021.61 1021.91 1022.16 1022.37 1022.54 1022.67 1022.76 1022.81 1022.82
1020.15 1020.24 1020.30 1020.31 1020.26 1020.16 1020.04 1019.91 1019.80 1019.72 1019.67 1019.66 1019.66 1019.65 1019.62 1019.57 1019.48 1019.37 1019.26 1019.18 1019.15 1019.19 1019.32 1019.53 1019.81 1020.13 1020.49 1020.84 1021.17 1021.47 1021.73 1021.95 1022.13 1022.29 1022.41 1022.49 1022.54 1022.55
1020.98 1021.06 1021.10 1021.08 1021.00 1020.88 1020.73 1020.58 1020.46 1020.37 1020.31 1020.29 1020.29 1020.28 1020.24 1020.18 1020.08 1019.96 1019.84 1019.73 1019.66 1019.66 1019.74 1019.88 1020.08 1020.32 1020.59 1020.85 1021.10 1021.32 1021.52 1021.69 1021.83 1021.96 1022.06 1022.15 1022.20 1022.22
1021.76 1021.84 1021.86 1021.81 1021.71 1021.57 1021.40 1021.24 1021.11 1021.01 1020.96 1020.93 1020.93 1020.92 1020.90 1020.84 1020.75 1020.63 1020.50 1020.39 1020.30 1020.26 1020.28 1020.34 1020.46 1020.60 1020.75 1020.90 1021.04 1021.16 1021.26 1021.35 1021.45 1021.54 1021.63 1021.71 1021.78 1021.83
1022.45 1022.51 1022.51 1022.45 1022.33 1022.17 1021.99 1021.82 1021.68 1021.58 1021.52 1021.50 1021.50 1021.50 1021.49 1021.45 1021.38 1021.28 1021.17 1021.06 1020.96 1020.90 1020.86 1020.86 1020.88 1020.91 1020.94 1020.96 1020.96 1020.96 1020.96 1020.97 1020.99 1021.04 1021.11 1021.20 1021.29 1021.36
1023.01 1023.05 1023.03 1022.94 1022.80 1022.62 1022.43 1022.25 1022.10 1021.99 1021.94 1021.92 1021.93 1021.94 1021.95 1021.94 1021.90 1021.84 1021.75 1021.66 1021.57 1021.49 1021.41 1021.35 1021.28 1021.20 1021.11 1021.00 1020.88 1020.75 1020.64 1020.55 1020.50 1020.50 1020.55 1020.64 1020.75 1020.86
1023.41 1023.42 1023.37 1023.26 1023.10 1022.91 1022.71 1022.52 1022.36 1022.25 1022.19 1022.17 1022.19 1022.22 1022.25 1022.27 1022.27 1022.24 1022.19 1022.13 1022.05 1021.97 1021.87 1021.75 1021.62 1021.45 1021.26 1021.04 1020.80 1020.56 1020.34 1020.16 1020.05 1020.00 1020.02 1020.10 1020.21 1020.35
1023.63 1023.61 1023.54 1023.41 1023.24 1023.04 1022.83 1022.63 1022.48 1022.36 1022.30 1022.28 1022.30 1022.34 1022.39 1022.44 1022.47 1022.48 1022.46 1022.43 1022.38 1022.30 1022.19 1022.05 1021.87 1021.64 1021.37 1021.06 1020.74 1020.41 1020.11 1019.86 1019.68 1019.58 1019.57 1019.63 1019.75 1019.89
1023.69 1023.64 1023.55 1023.41 1023.24 1023.04 1022.84 1022.65 1022.50 1022.38 1022.32 1022.30 1022.33 1022.37 1022.43 1022.49 1022.54 1022.58 1022.59 1022.59 1022.55 1022.48 1022.38 1022.22 1022.02 1021.76 1021.45 1021.09 1020.71 1020.33 1019.98 1019.67 1019.45 1019.31 1019.26 1019.29 1019.39 1019.52
1023.60 1023.54 1023.44 1023.31 1023.16 1022.98 1022.80 1022.63 1022.49 1022.39 1022.33 1022.31 1022.33 1022.37 1022.43 1022.50 1022.55 1022.60 1022.62 1022.63 1022.60 1022.54 1022.44 1022.29 1022.07 1021.81 1021.48 1021.11 1020.71 1020.31 1019.93 1019.60 1019.34 1019.16 1019.07 1019.06 1019.12 1019.22
1023.40 1023.35 1023.27 1023.18 1023.05 1022.92 1022.77 1022.64 1022.52 1022.43 1022.38 1022.36 1022.37 1022.41 1022.45 1022.50 1022.55 1022.58 1022.60 1022.59 1022.56 1022.50 1022.40 1022.24 1022.04 1021.77 1021.46 1021.09 1020.70 1020.30 1019.92 1019.58 1019.30 1019.09 1018.96 1018.90 1018.91 1018.95
1023.15 1023.13 1023.10 1023.05 1022.98 1022.89 1022.79 1022.70 1022.61 1022.54 1022.50 1022.48 1022.48 1022.50 1022.52 1022.54 1022.56 1022.56 1022.55 1022.52 1022.46 1022.38 1022.26 1022.11 1021.90 1021.65 1021.34 1021.00 1020.63 1020.25 1019.87 1019.53 1019.24 1019.00 1018.83 1018.72 1018.66 1018.64
1022.89 1022.93 1022.95 1022.96 1022.95 1022.92 1022.87 1022.82 1022.76 1022.71 1022.68 1022.65 1022.64 1022.63 1022.63 1022.61 1022.59 1022.55 1022.49 1022.41 1022.32 1022.19 1022.05 1021.87 1021.65 1021.40 1021.11 1020.78 1020.43 1020.06 1019.70 1019.36 1019.06 1018.79 1018.58 1018.41 1018.28 1018.18
1022.68 1022.78 1022.86 1022.93 1022.97 1022.99 1022.98 1022.96 1022.93 1022.90 1022.86 1022.84 1022.81 1022.78 1022.74 1022.68 1022.61 1022.51 1022.40 1022.26 1022.11 1021.93 1021.74 1021.52 1021.28 1021.02 1020.72 1020.40 1020.05 1019.70 1019.34 1019.00 1018.67 1018.38 1018.12 1017.89 1017.70 1017.53
1022.53 1022.68 1022.82 1022.93 1023.01 1023.06 1023.07 1023.07 1023.05 1023.02 1022.99 1022.96 1022.91 1022.86 1022.78 1022.69 1022.57 1022.42 1022.24 1022.05 1021.82 1021.59 1021.34 1021.07 1020.79 1020.49 1020.17 1019.83 1019.48 1019.12 1018.76 1018.40 1018.05 1017.72 1017.42 1017.14 1016.88 1016.65
1022.42 1022.61 1022.77 1022.90 1023.00 1023.05 1023.08 1023.07 1023.05 1023.02 1022.99 1022.94 1022.88 1022.81 1022.71 1022.58 1022.42 1022.22 1021.99 1021.73 1021.44 1021.14 1020.83 1020.50 1020.17 1019.82 1019.47 1019.11 1018.73 1018.35 1017.96 1017.58 1017.20 1016.83 1016.48 1016.16 1015.85 1015.57
1022.30 1022.50 1022.67 1022.80 1022.88 1022.92 1022.93 1022.92 1022.89 1022.85 1022.80 1022.75 1022.68 1022.59 1022.47 1022.32 1022.12 1021.88 1021.61 1021.30 1020.96 1020.60 1020.22 1019.84 1019.46 1019.07 1018.67 1018.27 1017.86 1017.45 1017.03 1016.61 1016.20 1015.79 1015.40 1015.04 1014.69 1014.37
1022.13 1022.31 1022.46 1022.56 1022.61 1022.62 1022.60 1022.57 1022.52 1022.47 1022.41 1022.35 1022.28 1022.18 1022.05 1021.87 1021.66 1021.39 1021.08 1020.74 1020.35 1019.95 1019.53 1019.11 1018.68 1018.25 1017.81 1017.38 1016.94 1016.49 1016.04 1015.58 1015.13 1014.69 1014.27 1013.86 1013.49 1013.14
1021.83 1021.99 1022.09 1022.14 1022.15 1022.13 1022.08 1022.02 1021.96 1021.90 1021.84 1021.77 1021.69 1021.59 1021.45 1021.26 1021.03 1020.75 1020.42 1020.04 1019.64 1019.21 1018.76 1018.31 1017.85 1017.39 1016.93 1016.46 1016.00 1015.52 1015.04 1014.56 1014.08 1013.61 1013.16 1012.72 1012.32 1011.94
1021.39 1021.50 1021.55 1021.55 1021.52 1021.46 1021.39 1021.31 1021.24 1021.17 1021.10 1021.03 1020.95 1020.84 1020.69 1020.50 1020.25 1019.95 1019.61 1019.22 1018.80 1018.35 1017.89 1017.43 1016.96 1016.49 1016.02 1015.54 1015.06 1014.57 1014.07 1013.57 1013.07 1012.58 1012.10 1011.64 1011.22 1010.82
1020.80 1020.85 1020.85 1020.81 1020.75 1020.66 1020.57 1020.48 1020.40 1020.33 1020.26 1020.18 1020.09 1019.96 1019.80 1019.59 1019.32 1019.01 1018.65 1018.25 1017.82 1017.37 1016.91 1016.44 1015.98 1015.51 1015.04 1014.57 1014.09 1013.59 1013.09 1012.58 1012.06 1011.56 1011.06 1010.59 1010.15 1009.75
Thickness
5587 5584 5581 5577 5573 5569 5564 5560 5557 5556 5551 5541 5531 5524 5519 5514 5510 5506 5501 5497 5493 5492 5492 5492 5491 5490 5490 5488 5487 5487 5487 5487 5488 5488 5488 5488 5489 5491
5574 5571 5567 5563 5559 5555 5551 5547 5542 5540 5538 5529 5518 5510 5506 5502 5498 5494 5491 5487 5484 5482 5481 5481 5480 5479 5478 5477 5476 5476 5477 5477 5477 5478 5479 5480 5480 5481
5559 5556 5552 5548 5544 5540 5536 5532 5528 5524 5522 5515 5505 5499 5495 5492 5488 5484 5481 5477 5475 5474 5472 5471 5470 5468 5468 5466 5466 5466 5466 5467 5468 5469 5470 5470 5471 5472
5544 5541 5537 5534 5530 5526 5522 5518 5514 5510 5507 5503 5495 5489 5485 5482 5479 5475 5472 5469 5466 5465 5463 5462 5460 5458 5458 5457 5456 5456 5456 5457 5458 5458 5459 5460 5461 5461
5529 5526 5522 5519 5515 5512 5508 5504 5500 5498 5494 5490 5485 5480 5476 5473 5470 5466 5463 5459 5457 5455 5453 5451 5450 5449 5448 5447 5447 5447 5447 5447 5447 5447 5447 5447 5448 5449
5515 5512 5509 5506 5502 5499 5495 5492 5489 5486 5483 5480 5476 5471 5467 5464 5461 5457 5454 5450 5448 5446 5443 5441 5440 5439 5437 5437 5437 5437 5436 5435 5435 5435 5435 5436 5435 5435
5502 5499 5496 5494 5492 5489 5485 5480 5478 5475 5472 5469 5465 5462 5458 5454 5450 5447 5444 5440 5438 5435 5433 5431 5430 5429 5427 5427 5426 5425 5425 5424 5424 5424 5424 5424 5423 5423
5488 5485 5483 5481 5478 5477 5474 5471 5469 5465 5460 5457 5453 5450 5445 5442 5439 5437 5433 5430 5428 5424 5422 5421 5419 5419 5418 5418 5417 5416 5415 5415 5414 5413 5412 5411 5411 5411
5476 5473 5472 5469 5466 5463 5461 5459 5456 5454 5452 5446 5442 5437 5434 5431 5428 5425 5421 5418 5415 5413 5410 5409 5408 5408 5408 5407 5406 5406 5405 5404 5402 5401 5399 5398 5398 5398
5466 5463 5461 5458 5457 5454 5451 5447 5444 5442 5439 5436 5432 5428 5425 5422 5418 5414 5410 5406 5404 5402 5399 5395 5395 5395 5396 5396 5394 5393 5392 5390 5389 5387 5385 5384 5383 5383
5457 5455 5452 5450 5450 5446 5442 5437 5434 5431 5429 5426 5423 5419 5416 5413 5409 5404 5399 5393 5390 5390 5387 5383 5382 5381 5381 5381 5380 5378 5377 5375 5373 5371 5370 5368 5367 5367
5449 5446 5444 5443 5442 5439 5433 5429 5425 5422 5419 5415 5412 5408 5405 5402 5398 5394 5388 5380 5375 5373 5373 5369 5366 5363 5362 5365 5363 5362 5359 5357 5355 5354 5353 5352 5351 5350
5441 5438 5435 5435 5433 5430 5426 5421 5418 5414 5409 5405 5401 5397 5394 5390 5386 5382 5377 5370 5363 5359 5360 5355 5348 5344 5341 5343 5346 5345 5343 5341 5339 5338 5336 5335 5335 5335
5434 5430 5428 5427 5425 5421 5417 5414 5411 5405 5400 5395 5391 5387 5382 5377 5373 5369 5365 5360 5354 5349 5346 5341 5334 5329 5326 5325 5326 5328 5326 5325 5324 5323 5323 5322 5321 5321
5426 5424 5422 5419 5415 5411 5408 5405 5400 5394 5390 5385 5380 5375 5370 5366 5362 5357 5353 5347 5342 5338 5334 5329 5323 5317 5312 5311 5312 5310 5308 5310 5309 5309 5309 5308 5308 5307
5419 5416 5413 5409 5405 5402 5398 5393 5389 5384 5380 5375 5370 5365 5361 5355 5350 5345 5339 5334 5328 5325 5321 5317 5311 5304 5301 5298 5297 5297 5294 5293 5296 5293 5294 5295 5295 5295
5413 5407 5403 5399 5395 5391 5387 5383 5379 5375 5369 5364 5359 5354 5349 5344 5338 5332 5326 5320 5314 5309 5305 5301 5297 5293 5290 5286 5285 5286 5285 5284 5282 5281 5281 5284 5286 5286
5406 5399 5394 5389 5385 5381 5377 5373 5369 5364 5359 5354 5348 5342 5337 5331 5325 5319 5313 5308 5302 5298 5293 5287 5281 5278 5278 5279 5278 5277 5275 5273 5272 5271 5270 5272 5279 5279
5397 5391 5385 5380 5376 5372 5367 5362 5358 5354 5349 5343 5337 5331 5324 5318 5312 5307 5301 5296 5291 5287 5282 5275 5268 5263 5263 5267 5272 5268 5265 5263 5262 5262 5262 5263 5269 5274
5387 5382 5377 5373 5368 5364 5359 5354 5350 5345 5339 5334 5327 5321 5314 5307 5301 5296 5291 5285 5281 5277 5273 5266 5259 5255 5253 5256 5260 5262 5256 5254 5254 5255 5257 5258 5261 5265
5380 5375 5371 5366 5361 5357 5352 5346 5341 5336 5330 5324 5318 5312 5305 5298 5292 5287 5282 5278 5275 5271 5267 5264 5257 5252 5249 5247 5251 5259 5255 5250 5249 5248 5250 5249 5254 5259
5373 5368 5364 5360 5355 5350 5344 5339 5333 5328 5322 5316 5310 5304 5298 5291 5285 5280 5276 5271 5267 5263 5261 5259 5253 5246 5241 5241 5247 5254 5255 5251 5247 5246 5246 5246 5244 5253
5367 5362 5358 5353 5348 5343 5337 5332 5326 5321 5315 5309 5303 5297 5290 5284 5279 5274 5270 5265 5261 5258 5255 5253 5250 5245 5242 5241 5243 5247 5250 5249 5247 5247 5249 5246 5245 5250